This is the latest recevied weather packets stored in our database for station/object K5IDL. If no packets are shown the sender has not sent any weather packets the latest 10 day(s).
| Time | Temp. | Humidity | Pressure | Rain* | Wind** | Luminosity | Snow |
|---|---|---|---|---|---|---|---|
| 1777707030 | 13.89° C | 81% | 1019.5 hPa | 0 mm | - | 0 W/m² | - |
| 1777706727 | 13.89° C | 81% | 1019.7 hPa | 0 mm | - | 0 W/m² | - |
| 1777706425 | 13.89° C | 80% | 1019.6 hPa | 0 mm | - | 0 W/m² | - |
| 1777706122 | 13.33° C | 80% | 1019.7 hPa | 0 mm | - | 0 W/m² | - |
| 1777705821 | 13.33° C | 79% | 1019.6 hPa | 0 mm | - | 0 W/m² | - |
| 1777705518 | 13.33° C | 79% | 1019.8 hPa | 0 mm | - | 0 W/m² | - |
| 1777705216 | 13.89° C | 79% | 1019.8 hPa | 0 mm | - | 0 W/m² | - |
| 1777704914 | 13.89° C | 79% | 1019.9 hPa | 0 mm | - | 0 W/m² | - |
| 1777704612 | 13.89° C | 80% | 1019.9 hPa | 0 mm | - | 0 W/m² | - |
| 1777704310 | 13.33° C | 81% | 1019.9 hPa | 0 mm | - | 0 W/m² | - |
| 1777704007 | 13.33° C | 83% | 1019.8 hPa | 0 mm | - | 0 W/m² | - |
| 1777703704 | 12.78° C | 83% | 1019.9 hPa | 0 mm | - | 0 W/m² | - |
| 1777703402 | 12.22° C | 87% | 1020.1 hPa | 0 mm | - | 0 W/m² | - |
| 1777703098 | 12.22° C | 88% | 1020 hPa | 0 mm | - | 0 W/m² | - |
| 1777702797 | 12.22° C | 87% | 1019.8 hPa | 0 mm | - | 0 W/m² | - |
| 1777702495 | 12.78° C | 87% | 1019.9 hPa | 0 mm | - | 0 W/m² | - |
| 1777702191 | 12.78° C | 87% | 1019.8 hPa | 0 mm | - | 0 W/m² | - |
| 1777701886 | 12.78° C | 86% | 1019.9 hPa | 0 mm | - | 0 W/m² | - |
| 1777701583 | 12.78° C | 85% | 1019.7 hPa | 0 mm | - | 0 W/m² | - |
| 1777701280 | 12.78° C | 84% | 1020 hPa | 0 mm | - | 0 W/m² | - |
| 1777700975 | 13.33° C | 84% | 1019.9 hPa | 0 mm | - | 0 W/m² | - |
| 1777700673 | 13.33° C | 83% | 1020.1 hPa | 0 mm | - | 0 W/m² | - |
| 1777700370 | 13.33° C | 83% | 1020.1 hPa | 0 mm | - | 0 W/m² | - |
| 1777700067 | 13.89° C | 81% | 1020.1 hPa | 0 mm | - | 0 W/m² | - |
| 1777699764 | 13.89° C | 81% | 1019.9 hPa | 0 mm | - | 0 W/m² | - |
* Rain latest hour (hover to see other rain measurements)
** Current wind speed in m/s (hover to see current wind gust speed)